Location: Azul
(36.7830°S, 59.8500°W)
Time: 19:50:35
(UTC-03:00)

First-Move - Pass Details

Date: 09 October 2023
Orbit: 549 x 625 km, 97.7° (Epoch: 04 December)

Event Time Altitude Azimuth Distance (km) Brightness Sun altitude
Exits shadow 02:58:38 10° 161° (SSE) 1,844 ? -37.1°
Drops below altitude 10° 02:58:42 10° 161° (SSE) 1,866 ? -37.1°
Sets 03:01:11 0° 176° (S) 2,764 ? -36.8°
